Location: Bühlhof
(48.7849°N, 8.6361°E)
Time: 20:13:56
(UTC+00:00)

Cosmos 2228 Rocket - Pass Details

Date: 19 January 2026
Orbit: 612 x 647 km, 82.5° (Epoch: 16 February)

Event Time Altitude Azimuth Distance (km) Brightness Sun altitude
Rises 18:03:04 0° 173° (S) 2,924 6.6 -19.4°
Reaches altitude 10° 18:05:21 10° 168° (SSE) 2,015 5.6 -19.8°
Enters shadow 18:09:14 47° 113° (ESE) 840 3.3 -20.4°
